Weather Roundup
Issued by NWS Chicago, IL

Home | Current Version | Previous Version | Graphics & Text | Print | Product List | Glossary On
Versions: 1 2 3 4 5 6 7 8 9 10 11 12 13 14 15 16 17 18 19 20 21 22 23 24 25 26 27 28 29 30 31 32 33 34 35 36 37 38 39 40 41 42 43 44 45 46 47 48 49 50
000
NZUS59 KLOT 291500
HRRLOT

CHICAGO AREA WEATHER ROUNDUP
NATIONAL WEATHER SERVICE CHICAGO/ROMEOVILLE IL
1000 AM CDT TUE JUL 29 2014

NOTE: "FAIR" INDICATES FEW OR NO CLOUDS BELOW 12,000 FEET WITH NO
SIGNIFICANT WEATHER AND/OR OBSTRUCTIONS TO VISIBILITY.

* THESE STATIONS ARE NOT UNDER NWS QUALITY CONTROL. THEY ALSO MAY NOT
  REPORT WEATHER SUCH AS PRECIPITATION OR FOG.

ILZ005-006-012>014-019>023-291600-
NORTHEAST ILLINOIS

CITY           SKY/WX    TMP DP  RH WIND       PRES   REMARKS
OHARE          MOSUNNY   71  52  50 NW15      30.04F
MIDWAY         MOSUNNY   73  56  54 W9        30.04F
AURORA         SUNNY     70  56  61 W10       30.07F
LANSING*       MOSUNNY   71  55  56 W8        30.04F
WAUKEGAN       SUNNY     69  56  62 VRB6      30.03F
DUPAGE AIRPORT MOSUNNY   71  55  56 NW9       30.05F
WHEELING       SUNNY     72  55  55 NW10      30.05S
NORTHERLY IS     N/A     71  53  52 NW7         N/A
$$

WIZ051-052-058>065-066-070>072-291600-
SOUTHEAST WISCONSIN

CITY           SKY/WX    TMP DP  RH WIND       PRES   REMARKS
MILWAUKEE      MOSUNNY   69  55  60 W8        30.03S
KENOSHA*       MOSUNNY   69  58  67 NW9       30.04S
RACINE*        MOSUNNY   69  56  62 W9        30.05S
WAUKESHA       SUNNY     66  55  68 W12       30.06S
$$

INZ001>003-010>013-019-020-291600-
NORTHWEST INDIANA

CITY           SKY/WX    TMP DP  RH WIND       PRES   REMARKS
GARY*          MOSUNNY   72  57  60 W14       30.05F
MICHIGAN CITY* NOT AVBL
RENSSELAER*    NOT AVBL
VALPARAISO     MOSUNNY   69  57  65 W7        30.05F
$$

LMZ740>746-291600-
SOUTHERN LAKE MICHIGAN

STATION/POSITION TIME  SKY/WX   TEMP WIND        PRES    VSBY
                                AIR  DIR/SP/G
                 (UTC)          (F)  (DEG/KT/KT) (MB)    (MI)
HARRISON CRIB    1400            66  270/  8/  9   N/A
BURNHAM HARBOR   1400            70  280/  6/  9   N/A
CALUMET HARBOR   1400            69  290/  5/ 10 1016.1F
BURNS HARBOR     NOT AVBL
MICHIGAN CITY    1400            64  220/ 11/ 14   N/A
$$

ABBREVIATIONS USED IN REMARKS
   TC - TEMPERATURE IN CELSIUS
  WCI - WIND CHILL INDEX
   HX - HEAT INDEX
  VSB - VISIBILITY
$$


USA.gov is the U.S. government's official web portal to all federal, state and local government web resources and services.